Weather History for Bakersfield, CA

Change the Weather History Date:

Wednesday, September 25, 2013

  Actual Average Record
Temperature  
Mean Temperature 67 °F 75 °F  
Max Temperature 75 °F 88 °F 103 °F (1975)
Min Temperature 59 °F 62 °F 34 °F (1908)
Degree Days  
Heating Degree Days 0    
Month to date heating degree days 1  
Since 1 July heating degree days 1  
Cooling Degree Days 2    
Month to date cooling degree days 349  
Year to date cooling degree days 2463  
Growing Degree Days 16 (Base 50)    
Moisture  
Dew Point 43 °F    
Average Humidity 46    
Maximum Humidity 62    
Minimum Humidity 29    
Precipitation  
Precipitation 0.00 in 0.00 in 0.15 in (1982)
Month to date precipitation T 0.06  
Year to date precipitation 2.36 4.49  
Since 1 July precipitation T 0.10  
Snow  
Snow 0.00 in - - ()
Month to date snowfall 0.0  
Since 1 July snowfall 0.0  
Since 1 September snowfall 0.0  
Snow Depth 0.00 in    
Sea Level Pressure  
Sea Level Pressure 29.82 in    
Wind  
Wind Speed 9 mph (NW)    
Max Wind Speed 20 mph    
Max Gust Speed 23 mph    
Visibility 10 miles    
Events      
T = Trace of Precipitation, MM = Missing Value Source: NWS Daily Summary

Daily Weather History Graph

Daily Weather History Graph

Search for Another Location

Airport:

Trip Planner

Search our weather history database for the weather conditions in past years. The results will help you decide how hot, cold, wet, or windy it might be!

Date:

Astronomy

Sep. 25, 2013 Rise Set
Actual Time 6:46 AM PDT 6:48 PM PDT
Civil Twilight 6:21 AM PDT 7:13 PM PDT
Nautical Twilight 5:51 AM PDT 7:43 PM PDT
Astronomical Twilight 5:21 AM PDT 8:12 PM PDT
Moon 11:09 PM PDT (9/25) 12:45 PM PDT (9/25)
Length of Visible Light 12h 52m
Length of Day
12h 01m
Waning Gibbous, 63% of the Moon is Illuminated
Sep 25
Waning Gibbous
Sep 26
Last Quarter
Oct 4
New
Oct 11
First Quarter
Oct 18
Full

Hourly Weather History & Observations

Time (PDT) Temp. Dew Point Humidity Pressure Visibility Wind Dir Wind Speed Gust Speed Precip Events Conditions
12:54 AM 68.0 °F 48.9 °F 50% 29.82 in 10.0 mi NNW 17.3 mph - N/A   Clear
1:54 AM 64.9 °F 48.9 °F 56% 29.84 in 10.0 mi NW 11.5 mph - N/A   Clear
2:54 AM 62.1 °F 46.9 °F 58% 29.85 in 10.0 mi NW 6.9 mph - N/A   Clear
3:54 AM 60.1 °F 46.9 °F 62% 29.87 in 10.0 mi WNW 4.6 mph - N/A   Clear
4:54 AM 59.0 °F 46.9 °F 64% 29.88 in 10.0 mi NNW 3.5 mph - N/A   Scattered Clouds
5:54 AM 59.0 °F 46.0 °F 62% 29.88 in 10.0 mi NNW 4.6 mph - N/A   Mostly Cloudy
6:54 AM 59.0 °F 46.0 °F 62% 29.88 in 10.0 mi North 6.9 mph - N/A   Mostly Cloudy
7:54 AM 61.0 °F 45.0 °F 56% 29.89 in 10.0 mi North 9.2 mph - N/A   Partly Cloudy
8:54 AM 63.0 °F 45.0 °F 52% 29.90 in 10.0 mi North 12.7 mph - N/A   Clear
9:54 AM 64.9 °F 44.1 °F 47% 29.91 in 10.0 mi NNW 11.5 mph - N/A   Mostly Cloudy
10:54 AM 66.0 °F 43.0 °F 43% 29.90 in 10.0 mi NW 11.5 mph 16.1 mph N/A   Scattered Clouds
11:54 AM 68.0 °F 43.0 °F 40% 29.88 in 10.0 mi WNW 10.4 mph - N/A   Partly Cloudy
12:54 PM 70.0 °F 43.0 °F 38% 29.85 in 10.0 mi WNW 9.2 mph - N/A   Partly Cloudy
1:54 PM 71.1 °F 42.1 °F 35% 29.82 in 10.0 mi West 9.2 mph - N/A   Clear
2:54 PM 73.0 °F 42.1 °F 33% 29.80 in 10.0 mi NNW 6.9 mph - N/A   Clear
3:54 PM 73.9 °F 39.9 °F 29% 29.77 in 10.0 mi NNW 9.2 mph 21.9 mph N/A   Clear
4:54 PM 73.9 °F 39.0 °F 28% 29.75 in 10.0 mi NW 11.5 mph - N/A   Clear
5:54 PM 73.0 °F 39.9 °F 30% 29.73 in 10.0 mi NNW 10.4 mph - N/A   Clear
6:54 PM 70.0 °F 42.1 °F 36% 29.73 in 10.0 mi North 8.1 mph - N/A   Clear
7:54 PM 66.0 °F 41.0 °F 40% 29.73 in 10.0 mi North 4.6 mph - N/A   Clear
8:54 PM 63.0 °F 39.9 °F 43% 29.74 in 10.0 mi NW 4.6 mph - N/A   Clear
9:54 PM 63.0 °F 39.9 °F 43% 29.75 in 10.0 mi NNW 5.8 mph - N/A   Clear
10:54 PM 63.0 °F 39.0 °F 41% 29.75 in 10.0 mi NW 4.6 mph - N/A   Mostly Cloudy
11:54 PM 61.0 °F 42.1 °F 50% 29.76 in 10.0 mi West 8.1 mph - N/A   Mostly Cloudy